DLH9PK LKPR-EDDK

Flight info

Callsign DLH9PK
Flight time 0h 52m
Altitude 34000
Route BALTU DCT DONAD DCT RAPET T843 VELIS DCT MASEK T841 ERNEP ERNEP1F
Aircraft A20N/M-SDE2E3FGHIRWXY/LB1

Departure

Time 2026-04-22 17:43
Airport Václav Havel Airport Prague (LKPR)

Arrival

Time 2026-04-22 18:35
Airport Cologne Bonn Airport (EDDK)
Time Latitude Longitude Altitude Speed Heading
2026-04-22 17:19 50.10460 14.26529 1255 ft 0 kts 33°
2026-04-22 17:31 50.10457 14.26525 1255 ft 1 kts 50°
2026-04-22 17:31 50.10448 14.26514 1255 ft 2 kts 14°
2026-04-22 17:31 50.10433 14.26511 1255 ft 2 kts 357°
2026-04-22 17:32 50.10418 14.26516 1255 ft 2 kts 338°
2026-04-22 17:32 50.10405 14.26527 1255 ft 2 kts 319°
2026-04-22 17:32 50.10395 14.26544 1255 ft 2 kts 300°
2026-04-22 17:32 50.10389 14.26562 1255 ft 0 kts 303°
2026-04-22 17:33 50.10388 14.26563 1255 ft 0 kts 304°
2026-04-22 17:36 50.10389 14.26561 1255 ft 1 kts 304°
2026-04-22 17:36 50.10404 14.26528 1255 ft 6 kts 310°
2026-04-22 17:36 50.10442 14.26455 1255 ft 10 kts 307°
2026-04-22 17:36 50.10487 14.26356 1255 ft 9 kts 304°
2026-04-22 17:37 50.10525 14.26267 1255 ft 10 kts 295°
2026-04-22 17:37 50.10538 14.26153 1255 ft 11 kts 264°
2026-04-22 17:37 50.10529 14.26064 1255 ft 7 kts 247°
2026-04-22 17:37 50.10482 14.26038 1255 ft 8 kts 159°
2026-04-22 17:38 50.10437 14.26103 1255 ft 9 kts 128°
2026-04-22 17:38 50.10394 14.26188 1255 ft 10 kts 123°
2026-04-22 17:38 50.10351 14.26286 1255 ft 11 kts 127°
2026-04-22 17:38 50.10300 14.26387 1255 ft 12 kts 127°
2026-04-22 17:39 50.10244 14.26504 1255 ft 15 kts 126°
2026-04-22 17:39 50.10169 14.26660 1255 ft 20 kts 127°
2026-04-22 17:39 50.09986 14.27036 1255 ft 24 kts 127°
2026-04-22 17:40 50.09876 14.27266 1255 ft 27 kts 128°
2026-04-22 17:40 50.09764 14.27449 1255 ft 23 kts 135°
2026-04-22 17:40 50.09640 14.27641 1255 ft 26 kts 135°
2026-04-22 17:40 50.09503 14.27853 1255 ft 29 kts 135°
2026-04-22 17:41 50.09357 14.28075 1255 ft 28 kts 135°
2026-04-22 17:41 50.09226 14.28269 1255 ft 16 kts 155°
2026-04-22 17:41 50.09154 14.28267 1255 ft 6 kts 211°
2026-04-22 17:41 50.09152 14.28265 1255 ft 0 kts 214°
2026-04-22 17:42 50.09141 14.28254 1255 ft 4 kts 216°
2026-04-22 17:42 50.09098 14.28175 1255 ft 14 kts 240°
2026-04-22 17:42 50.09086 14.28100 1255 ft 8 kts 275°
2026-04-22 17:42 50.09110 14.28034 1255 ft 14 kts 307°
2026-04-22 17:43 50.09349 14.27545 1255 ft 96 kts 307°
2026-04-22 17:43 50.09884 14.26440 1313 ft 153 kts 309°
2026-04-22 17:43 50.10519 14.25137 2006 ft 154 kts 309°
2026-04-22 17:43 50.11157 14.23812 2756 ft 157 kts 309°
2026-04-22 17:44 50.11819 14.22428 3445 ft 166 kts 310°
2026-04-22 17:44 50.12542 14.20929 4000 ft 183 kts 310°
2026-04-22 17:44 50.13336 14.19294 4561 ft 199 kts 310°
2026-04-22 17:44 50.14200 14.17513 4927 ft 221 kts 310°
2026-04-22 17:45 50.15212 14.15425 4950 ft 254 kts 309°
2026-04-22 17:45 50.16283 14.13194 4975 ft 259 kts 309°
2026-04-22 17:45 50.17128 14.10685 4971 ft 270 kts 284°
2026-04-22 17:45 50.17278 14.07699 5559 ft 281 kts 272°
2026-04-22 17:46 50.17250 14.04730 6716 ft 277 kts 271°
2026-04-22 17:46 50.17224 14.01740 7693 ft 279 kts 272°
2026-04-22 17:46 50.17223 13.98706 8598 ft 284 kts 273°
2026-04-22 17:46 50.17245 13.95634 9492 ft 288 kts 274°
2026-04-22 17:47 50.17281 13.92533 10342 ft 293 kts 274°
2026-04-22 17:47 50.17330 13.89317 11024 ft 304 kts 275°
2026-04-22 17:47 50.17389 13.85919 11489 ft 323 kts 275°
2026-04-22 17:47 50.17455 13.82330 11923 ft 341 kts 275°
2026-04-22 17:48 50.17500 13.79803 12248 ft 352 kts 275°
2026-04-22 17:48 50.17588 13.74645 13085 ft 365 kts 275°
2026-04-22 17:48 50.17652 13.70657 13877 ft 369 kts 275°
2026-04-22 17:48 50.17716 13.66660 14635 ft 374 kts 275°
2026-04-22 17:49 50.17779 13.62612 15366 ft 379 kts 275°
2026-04-22 17:49 50.17842 13.58482 16083 ft 383 kts 275°
2026-04-22 17:49 50.17906 13.54281 16787 ft 388 kts 275°
2026-04-22 17:49 50.17968 13.50086 17468 ft 392 kts 275°
2026-04-22 17:50 50.18030 13.45805 18139 ft 396 kts 275°
2026-04-22 17:50 50.18090 13.41513 18778 ft 401 kts 275°
2026-04-22 17:50 50.18150 13.37146 19399 ft 405 kts 275°
2026-04-22 17:50 50.18209 13.32741 19997 ft 410 kts 274°
2026-04-22 17:51 50.18266 13.28318 20586 ft 414 kts 274°
2026-04-22 17:51 50.18322 13.23786 21180 ft 418 kts 274°
2026-04-22 17:51 50.18377 13.19247 21791 ft 421 kts 274°
2026-04-22 17:51 50.18431 13.14652 22367 ft 425 kts 274°
2026-04-22 17:52 50.18483 13.10044 22931 ft 429 kts 274°
2026-04-22 17:52 50.18533 13.05418 23483 ft 433 kts 274°
2026-04-22 17:52 50.18583 13.00674 24020 ft 437 kts 274°
2026-04-22 17:52 50.18631 12.95964 24539 ft 441 kts 274°
2026-04-22 17:53 50.18677 12.91151 25047 ft 444 kts 273°
2026-04-22 17:53 50.18721 12.86345 25537 ft 448 kts 274°
2026-04-22 17:53 50.18763 12.81512 26002 ft 452 kts 273°
2026-04-22 17:53 50.18804 12.76548 26467 ft 455 kts 273°
2026-04-22 17:54 50.18843 12.71618 26910 ft 459 kts 273°
2026-04-22 17:54 50.18880 12.66670 27342 ft 462 kts 273°
2026-04-22 17:54 50.18916 12.61635 27772 ft 465 kts 273°
2026-04-22 17:54 50.18949 12.56535 28135 ft 470 kts 273°
2026-04-22 17:55 50.18970 12.53158 28277 ft 472 kts 273°
2026-04-22 17:55 50.19046 12.41241 28435 ft 476 kts 275°
2026-04-22 17:55 50.19236 12.36113 28863 ft 475 kts 278°
2026-04-22 17:56 50.19646 12.30953 29257 ft 475 kts 282°
2026-04-22 17:56 50.20274 12.25938 29573 ft 476 kts 286°
2026-04-22 17:56 50.21048 12.20919 29864 ft 478 kts 287°
2026-04-22 17:56 50.21856 12.15888 30199 ft 477 kts 287°
2026-04-22 17:57 50.22656 12.10905 30289 ft 477 kts 287°
2026-04-22 17:57 50.24238 12.00880 30294 ft 476 kts 287°
2026-04-22 17:58 50.25807 11.90813 30295 ft 475 kts 287°
2026-04-22 17:58 50.27367 11.80768 30782 ft 477 kts 287°
2026-04-22 17:58 50.28135 11.75792 31261 ft 474 kts 287°
2026-04-22 17:59 50.28902 11.70797 31671 ft 472 kts 287°
2026-04-22 17:59 50.29668 11.65796 32043 ft 470 kts 287°
2026-04-22 17:59 50.30420 11.60869 32405 ft 469 kts 287°
2026-04-22 17:59 50.31167 11.55929 32748 ft 468 kts 287°
2026-04-22 18:00 50.31657 11.52653 32946 ft 468 kts 287°
2026-04-22 18:00 50.32641 11.46041 33300 ft 469 kts 287°
2026-04-22 18:00 50.33375 11.41082 33551 ft 469 kts 287°
2026-04-22 18:00 50.34116 11.36063 33806 ft 470 kts 287°
2026-04-22 18:01 50.34840 11.31142 34041 ft 470 kts 286°
2026-04-22 18:01 50.35574 11.26140 34250 ft 471 kts 286°
2026-04-22 18:01 50.36310 11.21118 34307 ft 472 kts 286°
2026-04-22 18:02 50.37771 11.11131 34315 ft 471 kts 286°
2026-04-22 18:02 50.39219 11.01148 34319 ft 471 kts 286°
2026-04-22 18:03 50.40657 10.91163 34302 ft 471 kts 286°
2026-04-22 18:03 50.41372 10.86177 34054 ft 470 kts 286°
2026-04-22 18:03 50.42086 10.81173 33804 ft 470 kts 286°
2026-04-22 18:03 50.42791 10.76215 33556 ft 471 kts 286°
2026-04-22 18:04 50.43502 10.71203 33306 ft 471 kts 286°
2026-04-22 18:04 50.44219 10.66211 33057 ft 471 kts 286°
2026-04-22 18:04 50.44935 10.61261 32805 ft 464 kts 286°
2026-04-22 18:04 50.45646 10.56329 32554 ft 461 kts 286°
2026-04-22 18:05 50.46145 10.53086 32387 ft 460 kts 288°
2026-04-22 18:05 50.47398 10.46697 32054 ft 458 kts 294°
2026-04-22 18:05 50.48547 10.42118 31807 ft 456 kts 297°
2026-04-22 18:05 50.49873 10.37559 31556 ft 456 kts 299°
2026-04-22 18:06 50.51224 10.33070 31305 ft 456 kts 298°
2026-04-22 18:06 50.52586 10.28564 31055 ft 457 kts 298°
2026-04-22 18:06 50.53939 10.24075 30807 ft 458 kts 298°
2026-04-22 18:06 50.55300 10.19548 30556 ft 459 kts 298°
2026-04-22 18:07 50.56202 10.16532 30389 ft 458 kts 298°
2026-04-22 18:07 50.58007 10.10482 30053 ft 456 kts 298°
2026-04-22 18:07 50.59344 10.05986 29804 ft 454 kts 298°
2026-04-22 18:07 50.60678 10.01491 29553 ft 453 kts 298°
2026-04-22 18:08 50.62003 9.97019 29304 ft 451 kts 298°
2026-04-22 18:08 50.63305 9.92611 29055 ft 449 kts 298°
2026-04-22 18:08 50.64629 9.88125 28802 ft 447 kts 298°
2026-04-22 18:08 50.65923 9.83738 28554 ft 446 kts 298°
2026-04-22 18:09 50.67231 9.79289 28302 ft 445 kts 298°
2026-04-22 18:09 50.68514 9.74914 28054 ft 444 kts 298°
2026-04-22 18:09 50.69812 9.70482 27802 ft 442 kts 298°
2026-04-22 18:09 50.71080 9.66141 27554 ft 441 kts 298°
2026-04-22 18:10 50.72369 9.61723 27301 ft 440 kts 298°
2026-04-22 18:10 50.73698 9.57389 27050 ft 438 kts 300°
2026-04-22 18:10 50.75048 9.53150 26731 ft 437 kts 300°
2026-04-22 18:10 50.76416 9.48878 26035 ft 436 kts 300°
2026-04-22 18:11 50.77787 9.44590 25328 ft 435 kts 301°
2026-04-22 18:11 50.79130 9.40382 24633 ft 434 kts 300°
2026-04-22 18:11 50.80490 9.36110 23925 ft 432 kts 300°
2026-04-22 18:11 50.81816 9.31931 23232 ft 431 kts 300°
2026-04-22 18:12 50.83160 9.27687 22526 ft 429 kts 300°
2026-04-22 18:12 50.84483 9.23502 21827 ft 427 kts 300°
2026-04-22 18:12 50.85373 9.20682 21355 ft 426 kts 300°
2026-04-22 18:12 50.87123 9.15130 20421 ft 423 kts 300°
2026-04-22 18:13 50.88413 9.11026 19727 ft 421 kts 300°
2026-04-22 18:13 50.89710 9.06891 19025 ft 418 kts 300°
2026-04-22 18:13 50.90998 9.02778 18322 ft 416 kts 299°
2026-04-22 18:13 50.91988 8.98506 17607 ft 419 kts 285°
2026-04-22 18:14 50.92405 8.93944 16915 ft 419 kts 278°
2026-04-22 18:14 50.92669 8.89393 16217 ft 417 kts 277°
2026-04-22 18:14 50.92936 8.84862 15518 ft 414 kts 278°
2026-04-22 18:14 50.93232 8.80353 14817 ft 411 kts 278°
2026-04-22 18:15 50.93554 8.75834 14109 ft 408 kts 279°
2026-04-22 18:15 50.93881 8.71443 13416 ft 405 kts 279°
2026-04-22 18:15 50.94215 8.67045 12716 ft 403 kts 279°
2026-04-22 18:15 50.94552 8.62645 12012 ft 400 kts 279°
2026-04-22 18:16 50.94888 8.58267 11306 ft 397 kts 279°
2026-04-22 18:16 50.95213 8.54009 10692 ft 392 kts 278°
2026-04-22 18:16 50.95537 8.49752 10369 ft 379 kts 278°
2026-04-22 18:16 50.95839 8.45728 10330 ft 359 kts 278°
2026-04-22 18:17 50.96127 8.41882 10327 ft 339 kts 278°
2026-04-22 18:17 50.96395 8.38293 10324 ft 321 kts 279°
2026-04-22 18:17 50.96650 8.34870 10324 ft 304 kts 278°
2026-04-22 18:17 50.96898 8.31555 10329 ft 300 kts 278°
2026-04-22 18:18 50.97148 8.28267 10333 ft 300 kts 279°
2026-04-22 18:18 50.97445 8.25005 10334 ft 300 kts 280°
2026-04-22 18:18 50.97759 8.21759 10335 ft 300 kts 280°
2026-04-22 18:18 50.98082 8.18457 10336 ft 300 kts 280°
2026-04-22 18:19 50.98401 8.15197 10336 ft 300 kts 280°
2026-04-22 18:19 50.98716 8.11957 10337 ft 300 kts 281°
2026-04-22 18:19 50.99037 8.08650 10337 ft 300 kts 281°
2026-04-22 18:19 50.99353 8.05387 10338 ft 299 kts 281°
2026-04-22 18:20 50.99666 8.02142 10338 ft 299 kts 281°
2026-04-22 18:20 50.99983 7.98859 10338 ft 299 kts 280°
2026-04-22 18:20 51.00295 7.95617 10339 ft 300 kts 280°
2026-04-22 18:20 51.00610 7.92316 10339 ft 300 kts 280°
2026-04-22 18:21 51.00922 7.89028 10340 ft 300 kts 280°
2026-04-22 18:21 51.01233 7.85749 10341 ft 300 kts 280°
2026-04-22 18:21 51.01543 7.82476 10341 ft 300 kts 280°
2026-04-22 18:21 51.01853 7.79195 10342 ft 300 kts 280°
2026-04-22 18:22 51.02161 7.75941 10342 ft 300 kts 280°
2026-04-22 18:22 51.02469 7.72665 10343 ft 300 kts 280°
2026-04-22 18:22 51.02777 7.69372 10343 ft 300 kts 280°
2026-04-22 18:22 51.03082 7.66100 10232 ft 301 kts 280°
2026-04-22 18:23 51.03388 7.62824 9909 ft 299 kts 280°
2026-04-22 18:23 51.03690 7.59576 9582 ft 297 kts 279°
2026-04-22 18:23 51.03990 7.56316 9253 ft 295 kts 279°
2026-04-22 18:24 51.04575 7.49939 8604 ft 282 kts 279°
2026-04-22 18:24 51.04845 7.46983 8279 ft 267 kts 279°
2026-04-22 18:24 51.05358 7.41320 7586 ft 255 kts 280°
2026-04-22 18:25 51.05609 7.38532 7247 ft 253 kts 280°
2026-04-22 18:25 51.05857 7.35805 6922 ft 252 kts 281°
2026-04-22 18:25 51.06113 7.33034 6579 ft 253 kts 279°
2026-04-22 18:26 51.06611 7.27493 5926 ft 251 kts 279°
2026-04-22 18:26 51.06761 7.24765 5596 ft 251 kts 268°
2026-04-22 18:26 51.06609 7.22006 5253 ft 251 kts 263°
2026-04-22 18:26 51.06374 7.19280 4908 ft 251 kts 263°
2026-04-22 18:27 51.06108 7.16521 4555 ft 251 kts 262°
2026-04-22 18:27 51.05844 7.13787 4208 ft 251 kts 262°
2026-04-22 18:27 51.05575 7.11079 4021 ft 244 kts 262°
2026-04-22 18:27 51.05316 7.08421 4017 ft 240 kts 262°
2026-04-22 18:28 51.05057 7.05812 3784 ft 237 kts 261°
2026-04-22 18:28 51.04820 7.03253 3463 ft 238 kts 262°
2026-04-22 18:28 51.04587 7.00625 3139 ft 238 kts 263°
2026-04-22 18:28 51.04350 6.98072 3006 ft 228 kts 262°
2026-04-22 18:29 51.04120 6.95717 3040 ft 201 kts 262°
2026-04-22 18:29 51.03736 6.93756 3015 ft 175 kts 233°
2026-04-22 18:29 51.02805 6.92756 2983 ft 155 kts 185°
2026-04-22 18:29 51.01857 6.93057 2965 ft 136 kts 144°
2026-04-22 18:30 51.01103 6.93933 3002 ft 131 kts 133°
2026-04-22 18:30 50.99796 6.95887 2990 ft 130 kts 130°
2026-04-22 18:30 50.99134 6.96880 2999 ft 131 kts 131°
2026-04-22 18:31 50.98455 6.97880 2958 ft 133 kts 131°
2026-04-22 18:31 50.97776 6.98867 2785 ft 132 kts 132°
2026-04-22 18:31 50.97100 6.99843 2609 ft 132 kts 132°
2026-04-22 18:31 50.96418 7.00824 2436 ft 132 kts 132°
2026-04-22 18:32 50.95740 7.01799 2264 ft 131 kts 133°
2026-04-22 18:32 50.95067 7.02766 2089 ft 132 kts 133°
2026-04-22 18:32 50.94391 7.03738 1912 ft 132 kts 132°
2026-04-22 18:32 50.93705 7.04727 1740 ft 132 kts 133°
2026-04-22 18:33 50.93032 7.05699 1558 ft 133 kts 134°
2026-04-22 18:33 50.92336 7.06704 1383 ft 135 kts 134°
2026-04-22 18:33 50.91646 7.07699 1208 ft 135 kts 134°
2026-04-22 18:33 50.90952 7.08702 1026 ft 135 kts 134°
2026-04-22 18:34 50.90254 7.09712 845 ft 135 kts 134°
2026-04-22 18:34 50.89561 7.10714 666 ft 135 kts 134°
2026-04-22 18:34 50.88879 7.11701 489 ft 134 kts 134°
2026-04-22 18:34 50.88192 7.12694 312 ft 134 kts 134°
2026-04-22 18:35 50.87513 7.13698 246 ft 127 kts 133°
2026-04-22 18:35 50.87038 7.14392 259 ft 73 kts 139°
2026-04-22 18:35 50.86680 7.14891 272 ft 63 kts 135°
2026-04-22 18:35 50.86429 7.15229 279 ft 42 kts 150°
2026-04-22 18:36 50.86256 7.15321 282 ft 13 kts 167°
2026-04-22 18:36 50.86192 7.15343 284 ft 3 kts 167°
2026-04-22 18:36 50.86166 7.15353 285 ft 4 kts 167°
2026-04-22 18:36 50.86110 7.15350 284 ft 13 kts 197°
2026-04-22 18:37 50.86047 7.15229 282 ft 16 kts 262°
2026-04-22 18:37 50.86074 7.15090 281 ft 11 kts 315°
2026-04-22 18:37 50.86116 7.15029 281 ft 12 kts 317°
2026-04-22 18:37 50.86204 7.14901 280 ft 14 kts 319°
2026-04-22 18:38 50.86285 7.14786 278 ft 17 kts 318°
2026-04-22 18:38 50.86386 7.14642 273 ft 21 kts 318°
2026-04-22 18:38 50.86491 7.14487 268 ft 11 kts 317°
2026-04-22 18:39 50.86646 7.14264 260 ft 12 kts 318°
2026-04-22 18:39 50.86688 7.14202 259 ft 3 kts 317°
2026-04-22 18:39 50.86692 7.14196 259 ft 0 kts 319°
2026-04-22 18:40 50.86692 7.14195 259 ft 0 kts 319°
2026-04-22 18:40 50.86700 7.14190 258 ft 6 kts 335°
2026-04-22 18:40 50.86774 7.14130 257 ft 13 kts 328°
2026-04-22 18:40 50.86843 7.14041 255 ft 15 kts 317°
2026-04-22 18:41 50.86945 7.13896 252 ft 23 kts 317°
2026-04-22 18:41 50.87079 7.13700 249 ft 29 kts 317°
2026-04-22 18:41 50.87243 7.13462 245 ft 34 kts 319°
2026-04-22 18:41 50.87401 7.13234 245 ft 28 kts 317°
2026-04-22 18:42 50.87506 7.13080 245 ft 16 kts 317°
2026-04-22 18:42 50.87592 7.12955 247 ft 17 kts 317°
2026-04-22 18:42 50.87682 7.12828 248 ft 17 kts 315°
2026-04-22 18:42 50.87772 7.12693 248 ft 13 kts 318°
2026-04-22 18:43 50.87823 7.12627 247 ft 6 kts 335°
2026-04-22 18:43 50.87874 7.12611 247 ft 6 kts 355°
2026-04-22 18:43 50.87901 7.12579 246 ft 5 kts 293°
2026-04-22 18:43 50.87911 7.12517 245 ft 7 kts 284°
2026-04-22 18:44 50.87919 7.12478 244 ft 0 kts 289°
2026-04-22 18:44 50.87919 7.12477 244 ft 0 kts 289°